POLAR

Last updated on Sun Nov 10 2024 00:03:25 GMT+0000 (Coordinated Universal Time)

1 23802U 96013A 24313.68846461 .00000202 00000+0 00000+0 0 9992 2 23802 79.2412 233.2512 5959764 228.8482 61.9701 1.29846928137250
UTC large
Height (km)
Speed (km/s)
/
Latitude / Longitude
Inclination (degrees)
Orbital Period (minutes)
Azimuth
Elevation
Range (km)
Doppler Factor

Next 0 passes for location: London (51.5072 / 0.1276)

Sorry there are no passes over London.